Regional Weather Roundup
Issued by NWS

Home | Current Version | Previous Version | Text Only | Print | Product List | Glossary Off
Versions: 1 2 3 4 5 6 7 8 9 10 11 12 13 14 15 16 17 18 19 20 21 22 23 24 25 26 27 28 29 30 31 32 33 34 35 36 37 38 39 40 41 42 43 44 45 46 47 48 49 50

000
ASUS43 KBIS 271002
RWRND

NORTH DAKOTA REGIONAL WEATHER ROUNDUP
NATIONAL WEATHER SERVICE BISMARCK ND
500 AM CDT THU APR 27 2017

NOTE: "FAIR" INDICATES FEW OR NO CLOUDS BELOW 12,000 FEET WITH NO
SIGNIFICANT WEATHER AND/OR OBSTRUCTIONS TO VISIBILITY.


NDZ001>003-009>011-017-271100-
NORTHWEST NORTH DAKOTA

CITY           SKY/WX    TMP DP  RH WIND       PRES   REMARKS
WILLISTON      FAIR      30  25  81 E6        29.77R
MINOT          FAIR      23  18  81 NW6       29.77R WCI  16
$$

NDZ018>021-031>035-040>046-271100-
SOUTHWEST NORTH DAKOTA

CITY           SKY/WX    TMP DP  RH WIND       PRES   REMARKS
BISMARCK       FAIR      31  24  75 N7        29.75S
DICKINSON      FAIR      20  18  92 SE8       29.70F WCI  10
GARRISON         N/A     20  17  88 NW8       29.76R WCI  10
HETTINGER ARPT CLEAR     21  19  92 E5        29.72F WCI  15
$$

NDZ004>008-012>016-024-026-027-054-271100-
NORTHEAST NORTH DAKOTA

CITY           SKY/WX    TMP DP  RH WIND       PRES   REMARKS
GRAND FORKS    CLOUDY    28  26  92 N12       29.73S WCI  18
GRND FRKS AFB  CLOUDY    27  25  92 NE9       29.74S WCI  17
DEVILS LAKE    FAIR      28  23  81 N12       29.74S WCI  18
$$

NDZ022-023-025-028>030-036>039-047>053-271100-
SOUTHEAST NORTH DAKOTA

CITY           SKY/WX    TMP DP  RH WIND       PRES   REMARKS
FARGO          FLURRIES  27  24  89 N16       29.69S WCI  15
JAMESTOWN      CLOUDY    30  26  85 N7        29.70F
$$





USA.gov is the U.S. government's official web portal to all federal, state and local government web resources and services.